Location: Newark
(7.0858°N, 171.3717°E)
Time: 13:46:11
(UTC+00:00)

Vanguard 1 Rocket - Pass Details

Date: 02 December 2020
Orbit: 655 x 4222 km, 34.3° (Epoch: 23 January)

Event Time Altitude Azimuth Distance (km) Brightness Sun altitude
Exits shadow 15:53:28 27° 343° (NNW) 5,392 10.9 -37.5°
Maximum altitude 15:56:20 28° 354° (N) 5,163 10.9 -36.8°
Drops below altitude 10° 16:10:19 10° 48° (NE) 5,243 11.5 -33.6°
Sets 16:14:35 0° 61° (ENE) 5,749 12.0 -32.6°
